Weather History for KPHD - September, 2014

Change the Weather History Date:

Saturday, September 20, 2014

  Actual Average Record
Temperature  
Mean Temperature 70 °F 62 °F  
Max Temperature 79 °F 74 °F 89 °F (1978)
Min Temperature 60 °F 51 °F 37 °F (1979)
Degree Days  
Heating Degree Days 0 4  
Month to date heating degree days 60 39  
Since 1 July heating degree days 92 49  
Cooling Degree Days 5 1  
Month to date cooling degree days 67 56  
Year to date cooling degree days 616 678  
Growing Degree Days 19 (Base 50)    
Moisture  
Dew Point 60 °F    
Average Humidity 76    
Maximum Humidity 93    
Minimum Humidity 58    
Precipitation  
Precipitation 0.00 in 0.10 in 0.75 in (1966)
Month to date precipitation 0.63 2.38  
Year to date precipitation 32.75 29.33  
Sea Level Pressure  
Sea Level Pressure 30.04 in    
Wind  
Wind Speed 6 mph (South)    
Max Wind Speed 15 mph    
Max Gust Speed 22 mph    
Visibility 10 miles    
Events      
T = Trace of Precipitation, MM = Missing Value Source: NWS Daily Summary

Daily Weather History Graph

Daily Weather History Graph

Search for Another Location

Airport or City:

Trip Planner

Search our weather history database for the weather conditions in past years. The results will help you decide how hot, cold, wet, or windy it might be!

Date:

Astronomy

Sep. 20, 2014 Rise Set
Actual Time 7:11 AM EDT 7:26 PM EDT
Civil Twilight 6:44 AM EDT 7:53 PM EDT
Nautical Twilight 6:12 AM EDT 8:25 PM EDT
Astronomical Twilight 5:39 AM EDT 8:57 PM EDT
Moon 3:48 AM EDT (9/20) 5:29 PM EDT (9/20)
Length of Visible Light 13h 09m
Length of Day
12h 14m
Waning Crescent, 11% of the Moon is Illuminated
Sep 20
Waning Crescent
Sep 24
New
Oct 1
First Quarter
Oct 8
Full
Oct 15
Last Quarter

Hourly Weather History & Observations

Time (EDT) Temp. Dew Point Humidity Pressure Visibility Wind Dir Wind Speed Gust Speed Precip Events Conditions
12:53 AM 59.0 °F 57.0 °F 93% 30.12 in 8.0 mi SE 4.6 mph - N/A   Partly Cloudy
1:53 AM 61.0 °F 57.0 °F 87% 30.12 in 10.0 mi SE 3.5 mph - N/A   Clear
2:53 AM 61.0 °F 57.0 °F 87% 30.10 in 10.0 mi SSE 3.5 mph - N/A   Clear
3:53 AM 61.0 °F 57.0 °F 87% 30.10 in 10.0 mi Calm Calm - N/A   Clear
4:53 AM 61.0 °F 57.0 °F 87% 30.10 in 10.0 mi South 4.6 mph - N/A   Partly Cloudy
5:53 AM 61.0 °F 57.0 °F 87% 30.11 in 10.0 mi South 5.8 mph - N/A   Partly Cloudy
6:53 AM 60.1 °F 57.0 °F 90% 30.11 in 10.0 mi SSE 4.6 mph - N/A   Scattered Clouds
7:53 AM 61.0 °F 57.0 °F 87% 30.13 in 10.0 mi South 4.6 mph - N/A   Partly Cloudy
8:53 AM 64.9 °F 57.9 °F 78% 30.12 in 10.0 mi South 9.2 mph - N/A   Clear
9:53 AM 68.0 °F 59.0 °F 73% 30.12 in 10.0 mi South 6.9 mph - N/A   Clear
10:53 AM 71.1 °F 60.1 °F 68% 30.11 in 10.0 mi SSW 8.1 mph - N/A   Partly Cloudy
11:53 AM 73.9 °F 61.0 °F 64% 30.08 in 10.0 mi Variable 4.6 mph - N/A   Partly Cloudy
12:53 PM 75.9 °F 62.1 °F 62% 30.06 in 10.0 mi Variable 6.9 mph - N/A   Mostly Cloudy
1:53 PM 75.0 °F 63.0 °F 66% 30.04 in 10.0 mi South 5.8 mph - N/A   Mostly Cloudy
2:53 PM 77.0 °F 63.0 °F 62% 30.00 in 10.0 mi South 12.7 mph 21.9 mph N/A   Clear
3:53 PM 77.0 °F 64.0 °F 64% 29.99 in 10.0 mi South 9.2 mph - N/A   Mostly Cloudy
4:53 PM 79.0 °F 63.0 °F 58% 29.96 in 10.0 mi South 6.9 mph - N/A   Mostly Cloudy
5:53 PM 77.0 °F 63.0 °F 62% 29.95 in 10.0 mi South 6.9 mph - N/A   Partly Cloudy
6:53 PM 75.0 °F 62.1 °F 64% 29.93 in 10.0 mi South 4.6 mph - N/A   Clear
7:53 PM 71.1 °F 62.1 °F 73% 29.93 in 10.0 mi SSE 5.8 mph - N/A   Clear
8:53 PM 70.0 °F 62.1 °F 76% 29.95 in 10.0 mi Calm Calm - N/A   Scattered Clouds
9:53 PM 69.1 °F 62.1 °F 78% 29.96 in 10.0 mi South 3.5 mph - N/A   Mostly Cloudy
10:53 PM 70.0 °F 62.1 °F 76% 29.95 in 10.0 mi South 6.9 mph - N/A   Partly Cloudy
11:53 PM 68.0 °F 62.1 °F 81% 29.91 in 10.0 mi SSE 4.6 mph - N/A   Clear